This is the latest recevied weather packets stored in our database for station/object EMGATE. If no packets are shown the sender has not sent any weather packets the latest 10 day(s).
| Time | Temp. | Humidity | Pressure | Rain* | Wind** | Luminosity | Snow |
|---|---|---|---|---|---|---|---|
| 1777476241 | 14.44° C | 48% | 1012.2 hPa | 0 mm | - | - | - |
| 1777475341 | 14.44° C | 48% | 1012.4 hPa | 0 mm | - | - | - |
| 1777474441 | 14.44° C | 46% | 1012.4 hPa | 0 mm | - | - | - |
| 1777473541 | 13.89° C | 47% | 1012.5 hPa | 0 mm | - | - | - |
| 1777472641 | 13.33° C | 47% | 1012.7 hPa | 0 mm | - | - | - |
| 1777471741 | 13.33° C | 46% | 1012.7 hPa | 0 mm | - | - | - |
| 1777470841 | 13.33° C | 46% | 1012.7 hPa | 0 mm | - | - | - |
| 1777469941 | 13.33° C | 45% | 1012.8 hPa | 0 mm | - | - | - |
| 1777469041 | 13.33° C | 44% | 1012.9 hPa | 0 mm | - | - | - |
| 1777468141 | 14.44° C | 42% | 1012.8 hPa | 0 mm | - | - | - |
| 1777467241 | 14.44° C | 44% | 1013.2 hPa | 0 mm | - | - | - |
| 1777466341 | 12.78° C | 43% | 1013.4 hPa | 0 mm | - | - | - |
| 1777465442 | 12.22° C | 46% | 1013.6 hPa | 0 mm | - | - | - |
| 1777464541 | 11.11° C | 48% | 1013.9 hPa | 0 mm | - | - | - |
| 1777463642 | 10.56° C | 50% | 1013.9 hPa | 0 mm | - | - | - |
| 1777462741 | 10° C | 50% | 1013.9 hPa | 0 mm | - | - | - |
| 1777461841 | 10° C | 48% | 1013.7 hPa | 0 mm | - | - | - |
| 1777460942 | 10° C | 48% | 1013.6 hPa | 0 mm | - | - | - |
| 1777460042 | 10° C | 48% | 1013.5 hPa | 0 mm | - | - | - |
| 1777459141 | 10° C | 51% | 1013.4 hPa | 0 mm | - | - | - |
| 1777458242 | 9.44° C | 51% | 1013.4 hPa | 0 mm | - | - | - |
| 1777457342 | 9.44° C | 58% | 1013.2 hPa | 0 mm | - | - | - |
| 1777456442 | 8.89° C | 58% | 1013.1 hPa | 0 mm | - | - | - |
| 1777455542 | 8.89° C | 58% | 1013.1 hPa | 0 mm | - | - | - |
| 1777454642 | 8.89° C | 58% | 1012.9 hPa | 0 mm | - | - | - |
* Rain latest hour (hover to see other rain measurements)
** Current wind speed in m/s (hover to see current wind gust speed)